Moses Lake, WA

11:44 PM PDT on July 29, 2016 (GMT -0700)
Grant County International

Weather History for KMWH - August, 2012

Change the Weather History Date:

Thursday, August 2, 2012

  Actual Average Record
Temperature  
Mean Temperature 76 °F 74 °F  
Max Temperature 88 °F 91 °F 100 °F (1999)
Min Temperature 63 °F 57 °F 50 °F (1985)
Degree Days  
Heating Degree Days 0 0  
Month to date heating degree days 0 0  
Since 1 June heating degree days 92 63  
Since 1 July heating degree days 6 8  
Cooling Degree Days 11 9  
Month to date cooling degree days 19 18  
Year to date cooling degree days 411 372  
Since 1 June cooling degree days 384 347  
Growing Degree Days 25 (Base 50)    
Moisture  
Dew Point 43 °F    
Average Humidity 38    
Maximum Humidity 56    
Minimum Humidity 20    
Precipitation  
Precipitation 0.00 in 0.00 in 0.09 in (2013)
Month to date precipitation 0.00 0.01  
Year to date precipitation 5.58 5.19  
Sea Level Pressure  
Sea Level Pressure 29.95 in    
Wind  
Wind Speed 9 mph (West)    
Max Wind Speed 21 mph    
Max Gust Speed 31 mph    
Visibility 10 miles    
Events      
T = Trace of Precipitation, MM = Missing Value Source: NWS Daily Summary

Daily Weather History Graph

Daily Weather History Graph

Search for Another Location

Airport or City:

Trip Planner

Search our weather history database for the weather conditions in past years. The results will help you decide how hot, cold, wet, or windy it might be!

Date:

Astronomy

Aug. 02, 2012 Rise Set
Actual Time 5:37 AM PDT 8:28 PM PDT
Civil Twilight 5:02 AM PDT 9:03 PM PDT
Nautical Twilight 4:17 AM PDT 9:48 PM PDT
Astronomical Twilight 3:23 AM PDT 10:41 PM PDT
Moon 8:27 PM PDT (8/2) 6:27 AM PDT (8/2)
Length of Visible Light 16h 00m
Length of Day
14h 50m
Waxing Gibbous, 99% of the Moon is Illuminated
Aug 2
Waxing Gibbous
Aug 9
Last Quarter
Aug 17
New
Aug 24
First Quarter
Aug 31
Full

Hourly Weather History & Observations

Time (PDT) Temp. Dew Point Humidity Pressure Visibility Wind Dir Wind Speed Gust Speed Precip Events Conditions
12:52 AM 70.0 °F 44.1 °F 39% 29.95 in 10.0 mi West 10.4 mph - N/A   Clear
1:52 AM 68.0 °F 44.1 °F 42% 29.94 in 10.0 mi West 8.1 mph - N/A   Clear
2:52 AM 66.0 °F 44.1 °F 45% 29.94 in 10.0 mi West 6.9 mph - N/A   Clear
3:52 AM 64.9 °F 44.1 °F 47% 29.94 in 10.0 mi WSW 4.6 mph - N/A   Clear
4:52 AM 64.9 °F 46.9 °F 52% 29.96 in 10.0 mi SSW 8.1 mph - N/A   Clear
5:52 AM 63.0 °F 46.0 °F 54% 29.96 in 10.0 mi SW 5.8 mph - N/A   Clear
6:52 AM 66.9 °F 45.0 °F 45% 29.98 in 10.0 mi West 5.8 mph - N/A   Clear
7:52 AM 70.0 °F 43.0 °F 38% 29.99 in 10.0 mi West 5.8 mph - N/A   Clear
9:52 AM 81.0 °F 41.0 °F 24% 29.99 in 10.0 mi NW 9.2 mph - N/A   Clear
10:52 AM 84.0 °F 39.9 °F 21% 29.99 in 10.0 mi North 8.1 mph - N/A   Mostly Cloudy
11:52 AM 84.9 °F 39.9 °F 20% 29.98 in 10.0 mi WNW 9.2 mph 20.7 mph N/A   Mostly Cloudy
12:52 PM 84.9 °F 43.0 °F 23% 29.98 in 10.0 mi West 8.1 mph - N/A   Partly Cloudy
1:52 PM 84.9 °F 42.1 °F 22% 29.97 in 10.0 mi SSW 9.2 mph - N/A   Clear
2:52 PM 84.9 °F 41.0 °F 21% 29.96 in 10.0 mi SSW 6.9 mph - N/A   Clear
3:52 PM 86.0 °F 41.0 °F 20% 29.94 in 10.0 mi SSW 9.2 mph - N/A   Clear
4:52 PM 87.1 °F 42.1 °F 21% 29.92 in 10.0 mi South 10.4 mph - N/A   Clear
5:52 PM 87.1 °F 43.0 °F 21% 29.90 in 10.0 mi Variable 4.6 mph - N/A   Partly Cloudy
6:52 PM 86.0 °F 42.1 °F 21% 29.89 in 10.0 mi SW 10.4 mph - N/A   Clear
7:52 PM 82.9 °F 46.9 °F 28% 29.90 in 10.0 mi SW 5.8 mph - N/A   Partly Cloudy
8:52 PM 79.0 °F 43.0 °F 28% 29.91 in 10.0 mi WNW 10.4 mph - N/A   Clear
9:52 PM 78.1 °F 43.0 °F 29% 29.93 in 10.0 mi NNW 19.6 mph 27.6 mph N/A   Partly Cloudy
10:52 PM 73.4 °F 42.8 °F 33% 29.98 in 10.0 mi North 13.8 mph - N/A   Clear
11:52 PM 68.0 °F 42.1 °F 39% 29.98 in 10.0 mi North 10.4 mph - N/A   Clear